Preview of NWS' New Version of Forecast
This preview is not operational and should not be used for support decisions.

Regional Weather Roundup (RWR)

Issued by Columbia, SC (CAE)

                            
000
ASUS42 KCAE 160810
RWRCAE
REGIONAL WEATHER ROUNDUP
NATIONAL WEATHER SERVICE COLUMBIA SC
400 AM EDT TUE OCT 16 2018

NOTE: "FAIR" INDICATES FEW OR NO CLOUDS BELOW 12,000 FEET WITH NO
SIGNIFICANT WEATHER AND/OR OBSTRUCTIONS TO VISIBILITY.

NOT ALL STATIONS ARE QUALITY CONTROLLED BY THE NATIONAL 
WEATHER SERVICE. USE DATA WITH CAUTION...ESPECIALLY 
DEWPOINT OBSERVATIONS.

SCZ001>056-GAZ040-063>065-077-160900-
...UPSTATE SOUTH CAROLINA...
  
CITY           SKY/WX    TMP DP  RH WIND       PRES   REMARKS
ANDERSON       FAIR      65  64  97 NW3       30.11S                  
LIBERTY        FAIR      60  60 100 CALM      30.11S                  
SPARTANBURG    FAIR      64  63  94 SW3       30.09F                  
CLEMSON        FAIR      65  65 100 CALM      30.12F FOG              
GREENVILLE     FAIR      67  66  97 SW3       30.11F                  
GREENWOOD      FAIR      68  67  96 S6        30.11F                  
GREER          FAIR      67  66  97 SW7       30.10F                  
ROCK HILL      FAIR      64  64 100 CALM      30.10S                  
CHESTER        FAIR      64  64 100 W3        30.10S                  
LAURENS        FAIR      68  66  94 S5        30.09F                  


...CENTRAL SOUTH CAROLINA...
  
CITY           SKY/WX    TMP DP  RH WIND       PRES   REMARKS
COLUMBIA APT   FAIR      72  71  97 SW5       30.07F                  
COLUMBIA OWENS FAIR      72  69  90 CALM      30.08F                  
MCENTIRE ANGB  FAIR      70  70 100 CALM      30.08F FOG              
ORANGEBURG     CLOUDY    72  70  93 SW5       30.09F                  
SUMTER SHAW    MOCLDY    71  69  95 SW6       30.07F                  
NEWBERRY       FAIR      70  70 100 S5        30.12S                  
AIKEN          FAIR      68  68 100 S3        30.13S FOG              
BARNWELL       FAIR      72  70  94 CALM      30.10F                  
MANNING        FAIR      64  64 100 CALM      30.09F                  
CAMDEN         PTSUNNY   72  70  94 CALM      30.09S                  
LANCASTER      FOG       68  68 100 CALM      30.09S VSB 1            
WINNSBORO      FAIR      70  68  94 S3        30.09S                  


...EASTERN AND COASTAL SOUTH CAROLINA...
  
CITY           SKY/WX    TMP DP  RH WIND       PRES   REMARKS
MYRTLE BEACH   FAIR      74  71  91 S3        30.10F                  
N MYRTLE BCH   FAIR      77  73  87 S7        30.08F                  
CONWAY         FAIR      64  64 100 CALM      30.09F                  
MARION         FAIR      70  68  94 SW5       30.08F                  
HARTSVILLE     FAIR      68  68 100 CALM      30.07F                  
FLORENCE       FAIR      72  70  93 S8        30.07F                  
DARLINGTON     FAIR      69  68  96 S3        30.08F                  
CHARLESTON APT FAIR      72  71  97 CALM      30.10F                  
WALTERBORO     FAIR      70  68  94 CALM      30.11F                  
BEAUFORT       FAIR      70  69  97 CALM      30.10                   


...EASTERN GEORGIA...
  
CITY           SKY/WX    TMP DP  RH WIND       PRES   REMARKS
AUGUSTA BUSH F FAIR      71  70  96 S3        30.08F FOG              
AUGUSTA DANIEL FAIR      72  69  90 SE3       30.10F                  
THOMSON        CLOUDY    68  67  98 CALM      30.15S FOG              
CLAXTON        CLOUDY    75  75  98 CALM      30.11F FOG              
SYLVANIA       FOG       73  73 100 CALM      30.11F VSB 1/2          
STATESBORO     CLOUDY    73  73  97 S6        30.10F                  
SAVANNAH       FAIR      71  71 100 CALM      30.11S FOG              


...SOUTHERN NORTH CAROLINA...
  
CITY           SKY/WX    TMP DP  RH WIND       PRES   REMARKS
CHARLOTTE      FAIR      67  66  97 CALM      30.10F                  
MONROE         FAIR      66  64  93 CALM      30.08S                  
WADESBORO      FAIR      70  68  93 CALM      30.08S                  
ROCKINGHAM     PTSUNNY   68  68 100 S3        30.08S                  
ASHEVILLE      CLOUDY    63  62  97 NW3       30.16R FOG              

$$